User: anonymous   Login
Location: Unspecified
(0.0000°N, 0.0000°E)
Time: 20:10:50
(UTC+00:00)
Language:

Alouette 1 - Orbit

View from above orbital plane
View from above orbital plane
View from above satellite
View from above satellite

Ground track
Ground track

The orbit data is extracted from the following two-line orbital elements,

1 00424U 62049A   15147.84302778  .00000059  00000-0  57538-4 0  9994
2 00424 080.4667 289.9447 0022943 210.4842 259.5499 13.69012805628663
Epoch (UTC): 27 May 2015 20:13:57
Eccentricity: 0.0022943
inclination: 80.4667°
perigee height: 986 km
apogee height: 1020 km
right ascension of ascending node: 289.9447°
argument of perigee: 210.4842°
revolutions per day: 13.69012805
mean anomaly at epoch: 259.5499°
orbit number at epoch: 62866

The dashed part of the orbit path shows where the satellite is in the earth's shadow,  

DLR